Вернуться в каталог

STARLINK-36347

АктивенСвязьVLEO
NORAD 68521·PAYLOAD·🇺🇸 United States

Запущен Mar 30, 2026 с Cape Canaveral Space Force Station

Loading…

Ближайшие Пролёты (ближайшие 24 часа)

TLE

СвежийSource: CelesTrak SupGP

Эпоха: Sep 15, 2026, 03:53 UTC

1 68521C 26068P   26258.16229167  .00047323  00000+0  13974-2 0  2583
2 68521  53.1589 326.8716 0001220  92.6079  16.6561 15.34383767    19

Отслеживайте STARLINK-36347 в реальном времени с AllMySat

Download on the App Store